seed: p2v3s27

Total games: 169


  • Filter by # of Players
  • Filter by Score
  • Filter by Variant



ID # of Players Score Variant Date & Time Players
319196 2 30 Rainbow (6 Suits) 2020-10-13 — 02:23:08 UTC BlueNovember, Pantheia
427315 2 30 Rainbow (6 Suits) 2021-02-06 — 03:53:22 UTC n21, other
84255 2 29 Rainbow (6 Suits) 2020-02-29 — 02:49:11 UTC iggy2foots, logiciain
148542 2 29 Rainbow (6 Suits) 2020-05-02 — 19:07:31 UTC benwake, Cornflake62
279451 2 29 Rainbow (6 Suits) 2020-08-24 — 19:05:35 UTC gwenhwyfar, meeree
296273 2 29 Rainbow (6 Suits) 2020-09-12 — 23:48:42 UTC helicopter, ichaelm
373892 2 29 Rainbow (6 Suits) 2020-12-17 — 20:04:46 UTC choonabi, safd
645122 2 29 Rainbow (6 Suits) 2021-10-18 — 18:54:14 UTC _Trase_, Inygo2
4231 2 28 Rainbow (6 Suits) 2018-03-21 — 04:56:49 UTC florrat2, RaKXeR
40546 2 28 Rainbow (6 Suits) 2019-06-03 — 19:48:32 UTC lh, Sh
48672 2 28 Rainbow (6 Suits) 2019-08-01 — 16:37:00 UTC Sadret, Sharklah
164847 2 28 Rainbow (6 Suits) 2020-05-14 — 00:51:06 UTC alicia_atsg, robj
172004 2 28 Rainbow (6 Suits) 2020-05-18 — 21:42:09 UTC Ch1cken, frollo9386
209354 2 28 Rainbow (6 Suits) 2020-06-17 — 04:50:00 UTC mfl, vmplays
219952 2 28 Rainbow (6 Suits) 2020-06-27 — 00:22:45 UTC mirza, shhh
234640 2 28 Rainbow (6 Suits) 2020-07-10 — 01:28:00 UTC budabloom, mindabloom
283631 2 28 Rainbow (6 Suits) 2020-08-29 — 11:42:10 UTC ihavenoidea, VerySloppyTwo
295842 2 28 Rainbow (6 Suits) 2020-09-12 — 13:58:43 UTC Ewan, Willoughby
376377 2 28 Rainbow (6 Suits) 2020-12-20 — 03:38:00 UTC Bprrg, toddskinner
393226 2 28 Rainbow (6 Suits) 2021-01-05 — 07:26:28 UTC boba, Etherealz
395970 2 28 Rainbow (6 Suits) 2021-01-08 — 00:33:19 UTC boodles100, sleibson
416788 2 28 Rainbow (6 Suits) 2021-01-27 — 21:36:23 UTC glauberdlg, mestrepoke
488427 2 28 Rainbow (6 Suits) 2021-04-02 — 18:21:44 UTC Durandal, HelanaAshryvr
505480 2 28 Rainbow (6 Suits) 2021-04-18 — 17:41:18 UTC Frozen_Animal, Macs_girl
584595 2 28 Rainbow (6 Suits) 2021-07-08 — 19:11:31 UTC Alex92, DoraEs
621928 2 28 Rainbow (6 Suits) 2021-09-06 — 04:08:50 UTC dingyue, jcheng_wechr
156360 2 27 Rainbow (6 Suits) 2020-05-07 — 23:47:06 UTC Crivens, miriamattia
164151 2 27 Rainbow (6 Suits) 2020-05-13 — 07:16:11 UTC antitelharsic, Littleinvad
298453 2 27 Rainbow (6 Suits) 2020-09-15 — 22:14:43 UTC johnboy81918, Stephzheng
318481 2 27 Rainbow (6 Suits) 2020-10-12 — 01:23:18 UTC hu.man01, Stradguy1
399863 2 27 Rainbow (6 Suits) 2021-01-11 — 04:16:09 UTC FrozenAnimal, Macsgirl
560483 2 27 Rainbow (6 Suits) 2021-06-12 — 15:57:07 UTC JonathanHicks, sole.garcia
580463 2 27 Rainbow (6 Suits) 2021-07-02 — 19:39:40 UTC Frozen_Animal_, Macs_girl_
602614 2 27 Rainbow (6 Suits) 2021-08-05 — 19:32:51 UTC boobailey808, Mustang949
610287 2 27 Rainbow (6 Suits) 2021-08-19 — 01:10:19 UTC evieisgreat, ijs
630065 2 27 Rainbow (6 Suits) 2021-09-21 — 00:08:28 UTC TJTJTJJTTJ, zxczxczxczxczxc
101353 2 26 Rainbow (6 Suits) 2020-03-29 — 14:52:35 UTC jule_2000, Sunny_Hanabi
133410 2 26 Rainbow (6 Suits) 2020-04-22 — 21:12:14 UTC mglanzer, rfrank
170548 2 26 Rainbow (6 Suits) 2020-05-17 — 19:14:44 UTC Crivens_Temp, eliyahu
250164 2 26 Rainbow (6 Suits) 2020-07-25 — 00:00:41 UTC danguskhan, jaycanplay
325581 2 26 Rainbow (6 Suits) 2020-10-22 — 04:53:32 UTC gsherm, timt
337028 2 26 Rainbow (6 Suits) 2020-11-06 — 22:04:44 UTC eMeRGeD, lorenzo1
382424 2 26 Rainbow (6 Suits) 2020-12-26 — 04:44:36 UTC maryplantthomas, philipgerstoft
388773 2 26 Rainbow (6 Suits) 2021-01-01 — 02:50:30 UTC Axineld, banonogon
417640 2 26 Rainbow (6 Suits) 2021-01-28 — 16:56:00 UTC lcflorencelo, slyrk
420395 2 26 Rainbow (6 Suits) 2021-01-31 — 01:28:36 UTC elsring, missporbothe1st
434194 2 26 Rainbow (6 Suits) 2021-02-12 — 05:55:55 UTC rpbd, thugboat
499926 2 26 Rainbow (6 Suits) 2021-04-13 — 19:18:20 UTC andybergon, saraquarantine
105191 2 25 Rainbow (6 Suits) 2020-04-01 — 23:31:10 UTC ctetu, math444
186245 2 25 Rainbow (6 Suits) 2020-05-29 — 14:21:04 UTC callistooooo, newacc
234425 2 25 Rainbow (6 Suits) 2020-07-09 — 21:29:56 UTC adik, oldgreg
260449 2 25 Rainbow (6 Suits) 2020-08-03 — 12:44:01 UTC Lee3, RickSanchez
296318 2 25 Rainbow (6 Suits) 2020-09-13 — 00:27:58 UTC Bjuuti, markus1
305179 2 25 Rainbow (6 Suits) 2020-09-24 — 05:08:25 UTC erinselene, Ota
380506 2 25 Rainbow (6 Suits) 2020-12-24 — 02:46:11 UTC baozi, moontwist11
397569 2 25 Rainbow (6 Suits) 2021-01-09 — 06:19:49 UTC Laure, Shazaaaaam
43602 2 24 Rainbow (6 Suits) 2019-06-29 — 00:19:48 UTC Emily, J3enjamin
80099 2 24 Rainbow (6 Suits) 2020-02-15 — 13:18:39 UTC fh_monday, fr
192744 2 24 Rainbow (6 Suits) 2020-06-03 — 17:00:20 UTC mmv, tneerukonda
329815 2 24 Rainbow (6 Suits) 2020-10-28 — 13:17:35 UTC adi1, anusha2
416916 2 24 Rainbow (6 Suits) 2021-01-27 — 22:56:59 UTC ajsehifowha, dunes1
484615 2 24 Rainbow (6 Suits) 2021-03-29 — 19:07:26 UTC explorerus, raphaeleon
235239 2 23 Rainbow (6 Suits) 2020-07-10 — 17:48:26 UTC clspencer, sjforion
204888 2 22 Rainbow (6 Suits) 2020-06-13 — 06:29:46 UTC cam, Isa
231158 2 22 Rainbow (6 Suits) 2020-07-06 — 11:42:12 UTC higamel, Maestra
632773 2 22 Rainbow (6 Suits) 2021-09-25 — 21:05:51 UTC Aroma1997, Conny
615394 2 21 Rainbow (6 Suits) 2021-08-26 — 14:41:57 UTC ombrien, Sonea
626172 2 17 Rainbow (6 Suits) 2021-09-14 — 02:48:36 UTC anhnguyen, emmmmmmm
5413 2 0 Rainbow (6 Suits) 2018-04-21 — 19:53:03 UTC Libster, Zamiel
9214 2 0 Rainbow (6 Suits) 2018-08-03 — 17:42:24 UTC NotRaKXeR, sankala
11544 2 0 Rainbow (6 Suits) 2018-10-10 — 16:25:05 UTC Andrey Khesin, scharkbite
11806 2 0 Rainbow (6 Suits) 2018-10-16 — 14:13:44 UTC Andrew_UK, qqqq
12166 2 0 Rainbow (6 Suits) 2018-10-24 — 02:11:37 UTC efemural, jean
16636 2 0 Rainbow (6 Suits) 2019-01-04 — 16:59:12 UTC demochi, pepsicola
20379 2 0 Rainbow (6 Suits) 2019-02-19 — 03:40:52 UTC Feer, zerlick
37096 2 0 Rainbow (6 Suits) 2019-05-11 — 16:04:27 UTC becksgl, comfyc
56264 2 0 Rainbow (6 Suits) 2019-09-24 — 20:57:10 UTC hbjornoy, heddav
65447 2 0 Rainbow (6 Suits) 2019-11-19 — 04:48:22 UTC fivefives, jwngr
91575 2 0 Rainbow (6 Suits) 2020-03-18 — 22:19:29 UTC kawsn13, Nigr
95150 2 0 Rainbow (6 Suits) 2020-03-23 — 16:46:07 UTC anto.mazzo, mauro
98676 2 0 Rainbow (6 Suits) 2020-03-27 — 18:42:28 UTC hu.mab, Stradguy
103113 2 0 Rainbow (6 Suits) 2020-03-31 — 01:44:45 UTC antizoubilamaka, link825
115863 2 0 Rainbow (6 Suits) 2020-04-10 — 18:32:27 UTC Joost, Thomas1234
116297 2 0 Rainbow (6 Suits) 2020-04-10 — 23:09:40 UTC khushi, neerav
116775 2 0 Rainbow (6 Suits) 2020-04-11 — 03:59:41 UTC bfichera, brami
119223 2 0 Rainbow (6 Suits) 2020-04-12 — 17:25:49 UTC dewey, liwei
120178 2 0 Rainbow (6 Suits) 2020-04-13 — 04:35:24 UTC btownshend, raphtown
124476 2 0 Rainbow (6 Suits) 2020-04-16 — 20:47:33 UTC Fedorov, geor1983
130745 2 0 Rainbow (6 Suits) 2020-04-20 — 19:37:07 UTC bornagy, nandu13
131053 2 0 Rainbow (6 Suits) 2020-04-21 — 00:16:18 UTC chunksoul, rfrank27
133553 2 0 Rainbow (6 Suits) 2020-04-22 — 23:07:17 UTC asaelr, robense
137960 2 0 Rainbow (6 Suits) 2020-04-25 — 19:01:46 UTC Hawlucha, mperera
139173 2 0 Rainbow (6 Suits) 2020-04-26 — 07:34:54 UTC Justinp420 , RickIsNotMe
142173 2 0 Rainbow (6 Suits) 2020-04-28 — 15:16:56 UTC alanpotato, Roroast
143331 2 0 Rainbow (6 Suits) 2020-04-29 — 10:22:45 UTC Dilshaad, Dimithi
146879 2 0 Rainbow (6 Suits) 2020-05-01 — 20:11:49 UTC gaocow, paperairplane69
149653 2 0 Rainbow (6 Suits) 2020-05-03 — 05:23:37 UTC jalmenda, zmill415
149877 2 0 Rainbow (6 Suits) 2020-05-03 — 07:28:16 UTC WadeYao, weijing
156585 2 0 Rainbow (6 Suits) 2020-05-08 — 02:13:46 UTC opurtell, pfinley
157498 2 0 Rainbow (6 Suits) 2020-05-08 — 22:08:37 UTC bmann, butterflyd
160134 2 0 Rainbow (6 Suits) 2020-05-10 — 07:26:02 UTC KlyGuy, Rick
165848 2 0 Rainbow (6 Suits) 2020-05-14 — 19:13:54 UTC Allemoor, Kilkame
168557 2 0 Rainbow (6 Suits) 2020-05-16 — 14:55:41 UTC Guamo, larki
172610 2 0 Rainbow (6 Suits) 2020-05-19 — 05:48:11 UTC annieboboh, penguin69
179164 2 0 Rainbow (6 Suits) 2020-05-24 — 03:06:19 UTC Hartattack, TheDaniMan
183679 2 0 Rainbow (6 Suits) 2020-05-27 — 15:25:14 UTC austin904, dcrawford
189042 2 0 Rainbow (6 Suits) 2020-05-31 — 11:26:26 UTC Anaïs, Lissange
190770 2 0 Rainbow (6 Suits) 2020-06-01 — 22:25:43 UTC buxtehude11, yee claw
193216 2 0 Rainbow (6 Suits) 2020-06-04 — 01:39:46 UTC mycobee, smallman
201922 2 0 Rainbow (6 Suits) 2020-06-10 — 23:40:20 UTC RespectCaviar, schemetrical
206840 2 0 Rainbow (6 Suits) 2020-06-15 — 00:15:48 UTC Dr_Kakashi, kimbifille
218782 2 0 Rainbow (6 Suits) 2020-06-26 — 01:27:23 UTC ILOVECATS, seefut
221891 2 0 Rainbow (6 Suits) 2020-06-28 — 11:20:16 UTC Fuuut, gapiedaan
234029 2 0 Rainbow (6 Suits) 2020-07-09 — 06:27:07 UTC aridante, nostalgiccat
238921 2 0 Rainbow (6 Suits) 2020-07-14 — 04:40:26 UTC julian5, Laura17
239283 2 0 Rainbow (6 Suits) 2020-07-14 — 20:07:34 UTC ClandestineClue, Stavfx
242201 2 0 Rainbow (6 Suits) 2020-07-17 — 01:51:52 UTC lrovner, maxnorris13
261489 2 0 Rainbow (6 Suits) 2020-08-04 — 10:21:45 UTC MarieBa, roosmariej
295425 2 0 Rainbow (6 Suits) 2020-09-12 — 03:54:11 UTC mbluewolverine, Ornamentalist
302113 2 0 Rainbow (6 Suits) 2020-09-20 — 04:05:42 UTC heftych1, kimgannon
305839 2 0 Rainbow (6 Suits) 2020-09-25 — 04:13:30 UTC mmsieth, taylos3
318388 2 0 Rainbow (6 Suits) 2020-10-11 — 23:39:25 UTC etyg, klshen
325048 2 0 Rainbow (6 Suits) 2020-10-21 — 15:47:05 UTC lvlotiejus52, motiejus52
339106 2 0 Rainbow (6 Suits) 2020-11-09 — 11:18:41 UTC rea, Skippy
348291 2 0 Rainbow (6 Suits) 2020-11-20 — 01:53:21 UTC anser, william65537
349239 2 0 Rainbow (6 Suits) 2020-11-21 — 03:25:32 UTC mrpoopybutthole, Mrspoopy
353983 2 0 Rainbow (6 Suits) 2020-11-26 — 02:48:26 UTC coachamera, jasmine
369273 2 0 Rainbow (6 Suits) 2020-12-12 — 23:02:10 UTC Alchemist75, victorywys
370742 2 0 Rainbow (6 Suits) 2020-12-14 — 07:14:51 UTC KitKat13, torp
375184 2 0 Rainbow (6 Suits) 2020-12-19 — 01:00:10 UTC mdubz, tossevent
380023 2 0 Rainbow (6 Suits) 2020-12-23 — 19:25:33 UTC Oarty, sunflower
383914 2 0 Rainbow (6 Suits) 2020-12-27 — 15:31:39 UTC LdeAmorin, Matías_V5
399107 2 0 Rainbow (6 Suits) 2021-01-10 — 09:48:13 UTC Cold, Shad_Crow
401400 2 0 Rainbow (6 Suits) 2021-01-12 — 22:09:40 UTC C0000kiemonster, socerman
401653 2 0 Rainbow (6 Suits) 2021-01-13 — 03:03:52 UTC Jake_Stiles, solarstar92
409447 2 0 Rainbow (6 Suits) 2021-01-20 — 09:04:36 UTC i421, yotamamir
413152 2 0 Rainbow (6 Suits) 2021-01-24 — 03:20:19 UTC joeyjojo17, tacobot5000
416771 2 0 Rainbow (6 Suits) 2021-01-27 — 21:24:27 UTC john120283, princeton
419551 2 0 Rainbow (6 Suits) 2021-01-30 — 04:56:51 UTC Bageer, beanstalk2
435624 2 0 Rainbow (6 Suits) 2021-02-13 — 10:29:23 UTC Lampz, Mage
437371 2 0 Rainbow (6 Suits) 2021-02-14 — 21:50:40 UTC paari, peponenazionale
457684 2 0 Rainbow (6 Suits) 2021-03-05 — 17:17:08 UTC shocksteel, taptothebeat1
465698 2 0 Rainbow (6 Suits) 2021-03-12 — 16:34:23 UTC anom, Nico123
472884 2 0 Rainbow (6 Suits) 2021-03-18 — 22:30:03 UTC bockers, Meghan1234567
474862 2 0 Rainbow (6 Suits) 2021-03-20 — 17:24:51 UTC Footscrayzy, Noble
479103 2 0 Rainbow (6 Suits) 2021-03-24 — 15:11:02 UTC Junkrat, QP
479159 2 0 Rainbow (6 Suits) 2021-03-24 — 17:04:01 UTC enkimdu, Ritz1974
481839 2 0 Rainbow (6 Suits) 2021-03-27 — 01:47:16 UTC hambrenson, veganpecan
489472 2 0 Rainbow (6 Suits) 2021-04-03 — 17:44:48 UTC SuperKaczor, wygrywamalbonie
501911 2 0 Rainbow (6 Suits) 2021-04-15 — 16:44:51 UTC ATrueZen, dj.narayanan
516625 2 0 Rainbow (6 Suits) 2021-04-30 — 08:16:15 UTC Lel0uch, macanek
517021 2 0 Rainbow (6 Suits) 2021-04-30 — 19:46:33 UTC Dawit, TheBusDriver
523288 2 0 Rainbow (6 Suits) 2021-05-07 — 19:25:25 UTC itchy, tactical
535234 2 0 Rainbow (6 Suits) 2021-05-20 — 01:55:48 UTC jean_franc_bleu, loohye
548425 2 0 Rainbow (6 Suits) 2021-06-03 — 15:29:33 UTC MarieX, Theklaj
553260 2 0 Rainbow (6 Suits) 2021-06-06 — 17:14:03 UTC Wheatie, wifeofwheatie
561156 2 0 Rainbow (6 Suits) 2021-06-13 — 04:36:52 UTC MMage, rainboy
567431 2 0 Rainbow (6 Suits) 2021-06-19 — 06:20:00 UTC melodyw, premc
570862 2 0 Rainbow (6 Suits) 2021-06-23 — 08:50:01 UTC FizzyLizzy123, nohk
581973 2 0 Rainbow (6 Suits) 2021-07-04 — 22:19:31 UTC eloel, Offset
606395 2 0 Rainbow (6 Suits) 2021-08-12 — 12:42:51 UTC Polymath, sen88
613347 2 0 Rainbow (6 Suits) 2021-08-23 — 19:28:42 UTC Charles123123, wardsux1
619188 2 0 Rainbow (6 Suits) 2021-09-01 — 20:10:04 UTC asdasdasda, JTJTJTJTJT
619655 2 0 Rainbow (6 Suits) 2021-09-02 — 04:55:41 UTC AJNOLAN95, DaVeryGoodWaaan
631418 2 0 Rainbow (6 Suits) 2021-09-23 — 16:05:49 UTC HiIIIHIII, LEAVE
633885 2 0 Rainbow (6 Suits) 2021-09-27 — 19:47:07 UTC potato_laptop, wardsux2
645876 2 0 Rainbow (6 Suits) 2021-10-19 — 21:38:47 UTC asfchg, whatheswitchgme
646318 2 0 Rainbow (6 Suits) 2021-10-20 — 18:12:05 UTC JJTJTJTT, kads
647539 2 0 Rainbow (6 Suits) 2021-10-22 — 18:43:15 UTC sadasdasdasdas, xzgsd